Tracking 19245 objects as of 14-Aug-2018
HD Live streaming from Space Station
objects crossing your sky now

FENGYUN 1C DEB

Track FENGYUN 1C DEB now!
10-day predictions


NORAD ID: 32245
Int'l Code: 1999-025CWT
Perigee: 633.7 km
Apogee: 853.0 km
Inclination: 98.5 °
Period: 99.5 minutes
Semi major axis: 7114 km
RCS: 0.0014 m2 (small)
Launch date: May 10, 1999
Source: People's Republic of China (PRC)
Launch site: Taiyaun Space Center, China (TSC)

Note: This is SATELLITE DEBRIS
aabbcc
Your satellite tracking list
Your tracking list is empty




NASA's NSSDC Master Catalog

Two Line Element Set (TLE):
1 32245U 99025CWT 18218.69701509  .00000304  00000-0  85396-4 0  9990
2 32245  98.5001 314.0037 0154130 267.8085  90.5452 14.46782381583835
Source of the keplerian elements: AFSPC